OE3AJC-13 Weather Reports


time (UTC)temp
F
wind
direction
speed
knots
gust
knots
rain 1hr
in
rain 24hr
in
rain mn
in
humidity
%
barometer
mb
20260507164403 63 241 1.7 2.6 0.00 0.00 0.00 47 1012.4
20260507163402 63 263 1.7 2.6 0.00 0.00 0.00 46 1012.1
20260507162401 63 245 0.9 2.6 0.00 0.00 0.00 45 1012.2
20260507161401 64 238 1.7 2.6 0.00 0.00 0.00 45 1012.1
20260507160400 64 241 0.0 0.9 0.00 0.00 0.00 45 1011.9
20260507155359 65 248 4.3 4.3 0.00 0.00 0.00 43 1012.0
20260507154358 63 263 3.5 4.3 0.00 0.00 0.00 46 1012.1
20260507153357 64 231 0.0 2.6 0.00 0.00 0.00 47 1011.8
20260507152357 64 256 5.2 7.0 0.00 0.00 0.00 45 1012.0
20260507151356 64 241 4.3 5.2 0.00 0.00 0.00 46 1012.1
20260507150355 64 244 1.7 2.6 0.00 0.00 0.00 45 1011.8
20260507145354 64 247 1.7 2.6 0.00 0.00 0.00 45 1012.0
20260507144354 64 249 2.6 2.6 0.00 0.00 0.00 45 1011.9
20260507143353 65 248 2.6 4.3 0.00 0.00 0.00 44 1011.8
20260507142352 65 251 3.5 4.3 0.00 0.00 0.00 43 1011.7
20260507141352 65 246 3.5 4.3 0.00 0.00 0.00 42 1011.9
20260507140351 65 243 2.6 3.5 0.00 0.00 0.00 45 1011.6
20260507135350 66 197 0.0 1.7 0.00 0.00 0.00 44 1011.7
20260507134349 66 251 6.1 7.8 0.00 0.00 0.00 43 1011.7
20260507133349 66 252 3.5 7.0 0.00 0.00 0.00 43 1011.9
20260507132348 66 254 1.7 4.3 0.00 0.00 0.00 43 1011.8
20260507131347 66 269 5.2 7.8 0.00 0.00 0.00 42 1011.9
20260507130346 67 260 4.3 7.0 0.00 0.00 0.00 42 1012.0
20260507125346 67 234 6.1 7.8 0.00 0.00 0.00 42 1011.7
20260507124345 66 254 3.5 5.2 0.00 0.00 0.00 42 1012.0
20260507123344 65 243 7.0 9.6 0.00 0.00 0.00 44 1011.9
20260507122343 66 225 0.9 1.7 0.00 0.00 0.00 42 1011.6
20260507121343 67 254 2.6 3.5 0.00 0.00 0.00 40 1012.0
20260507120342 65 263 5.2 7.8 0.00 0.00 0.00 43 1011.8
20260507115341 65 220 3.5 5.2 0.00 0.00 0.00 44 1011.8
20260507114341 69 263 2.6 7.0 0.00 0.00 0.00 40 1011.9
20260507113340 67 260 1.7 2.6 0.00 0.00 0.00 41 1011.9
20260507111338 66 228 0.0 1.7 0.00 0.00 0.00 44 1012.0
20260507110338 66 218 0.9 2.6 0.00 0.00 0.00 43 1012.0
20260507105337 65 261 1.7 2.6 0.00 0.00 0.00 44 1011.9
20260507104336 64 246 5.2 7.8 0.00 0.00 0.00 47 1012.1
20260507103335 65 248 2.6 3.5 0.00 0.00 0.00 47 1012.1
20260507102335 65 182 0.9 1.7 0.00 0.00 0.00 46 1012.1
20260507101334 64 240 0.9 1.7 0.00 0.00 0.00 48 1012.1
20260507100333 63 221 0.9 1.7 0.00 0.00 0.00 48 1012.3
20260507095332 63 252 0.9 2.6 0.00 0.00 0.00 51 1012.2
20260507094331 61 165 0.0 1.7 0.00 0.00 0.00 52 1012.0
20260507093331 66 228 0.9 1.7 0.00 0.00 0.00 47 1012.1
20260507092330 62 188 2.6 3.5 0.00 0.00 0.00 51 1012.2
20260507090329 61 234 0.9 1.7 0.00 0.00 0.00 51 1012.1
20260507085328 61 216 5.2 7.0 0.00 0.00 0.00 52 1012.1
20260507084327 61 229 1.7 3.5 0.00 0.00 0.00 53 1012.0
20260507083323 62 236 0.9 2.6 0.00 0.00 0.00 51 1011.7
20260507082323 60 260 5.2 8.7 0.00 0.00 0.00 55 1011.9
20260507081322 59 301 4.3 7.0 0.00 0.00 0.00 56 1011.6
20260507080321 59 243 2.6 4.3 0.00 0.00 0.00 58 1011.5
20260507075321 59 272 5.2 5.2 0.00 0.00 0.00 59 1011.3
20260507074320 59 268 3.5 5.2 0.00 0.00 0.00 58 1011.5
20260507073319 59 244 0.9 2.6 0.00 0.00 0.00 60 1011.3
20260507072318 57 246 0.0 0.0 0.00 0.00 0.00 63 1011.5
20260507071318 55 234 0.0 0.9 0.00 0.00 0.00 65 1011.5
20260507070317 55 250 1.7 2.6 0.00 0.00 0.00 64 1011.5
20260507065316 55 266 6.1 9.6 0.00 0.00 0.00 64 1011.5
20260507064316 56 257 4.3 7.8 0.00 0.00 0.00 64 1011.6
20260507063315 57 257 5.2 7.0 0.00 0.00 0.00 62 1011.5
20260507062314 57 259 2.6 4.3 0.00 0.00 0.00 63 1011.1
20260507061314 56 224 6.1 7.8 0.00 0.00 0.00 64 1011.2
20260507060313 56 188 0.0 0.9 0.00 0.00 0.00 65 1011.1
20260507055312 55 248 2.6 3.5 0.00 0.00 0.00 67 1010.8
20260507054312 54 162 0.9 1.7 0.00 0.00 0.00 68 1010.7
20260507053311 54 228 1.7 2.6 0.00 0.00 0.00 68 1010.8
20260507052310 54 112 2.6 7.0 0.00 0.00 0.00 69 1010.6
20260507051309 54 231 0.0 0.9 0.00 0.00 0.00 70 1010.5
20260507050309 53 246 1.7 2.6 0.00 0.00 0.00 71 1010.6
20260507045308 53 236 1.7 2.6 0.00 0.00 0.00 72 1010.5
20260507044307 53 243 0.9 1.7 0.00 0.00 0.00 73 1010.2
20260507043306 53 208 0.0 1.7 0.00 0.00 0.00 73 1010.3
20260507042307 53 230 0.0 0.0 0.00 0.00 0.00 73 1010.0
20260507041305 53 218 1.7 2.6 0.00 0.00 0.00 74 1009.8
20260507040304 53 215 0.0 2.6 0.00 0.00 0.00 74 1009.6
20260507035306 52 163 1.7 2.6 0.00 0.00 0.00 74 1009.6
20260507034303 53 233 0.9 1.7 0.00 0.00 0.00 74 1009.5
20260507033302 53 234 0.0 0.0 0.00 0.00 0.00 74 1009.5
20260507032305 53 141 1.7 2.6 0.00 0.00 0.00 73 1009.5
20260507031301 53 195 1.7 2.6 0.00 0.00 0.00 74 1009.5
20260507030300 53 219 0.0 0.9 0.00 0.00 0.00 74 1009.4
20260507025259 53 185 0.9 1.7 0.00 0.00 0.00 74 1009.2
20260507024258 53 241 0.0 0.9 0.00 0.00 0.00 75 1009.1
20260507023258 53 231 0.0 0.0 0.00 0.00 0.00 75 1009.2
20260507022257 53 227 0.0 0.0 0.00 0.00 0.00 75 1009.0
20260507021256 53 231 0.9 1.7 0.00 0.00 0.00 75 1009.0
20260507020256 53 224 0.0 0.0 0.00 0.00 0.00 75 1009.2
20260507015255 53 237 1.7 2.6 0.00 0.00 0.00 75 1008.8
20260507014254 53 234 0.0 0.9 0.00 0.00 0.00 76 1008.7
20260507013254 54 232 0.0 0.9 0.00 0.00 0.00 75 1008.7
20260507012253 54 240 2.6 4.3 0.00 0.00 0.00 75 1008.7
20260507010251 54 232 1.7 1.7 0.00 0.00 0.00 76 1008.7
20260507005250 54 248 1.7 3.5 0.00 0.00 0.00 76 1008.7
20260507004250 54 228 0.0 0.0 0.00 0.00 0.00 76 1008.3
20260507003249 54 236 0.9 2.6 0.00 0.00 0.00 76 1008.4
20260507002248 55 237 0.0 0.9 0.00 0.00 0.00 75 1008.4
20260507001247 55 226 0.0 0.0 0.00 0.00 0.00 75 1008.2
20260507000247 55 263 0.9 2.6 0.00 0.00 0.00 75 1008.2
20260506235246 55 238 1.7 2.6 0.00 0.00 0.00 74 1008.0
20260506234245 55 258 1.7 3.5 0.00 0.00 0.00 75 1008.0
20260506233245 55 231 0.0 0.0 0.00 0.00 0.00 74 1007.9
20260506232244 56 235 0.0 0.0 0.00 0.00 0.00 74 1007.9
20260506231243 56 231 0.0 0.0 0.00 0.00 0.00 73 1008.0
20260506225241 56 220 0.0 1.7 0.00 0.00 0.00 73 1007.5
20260506224241 56 258 6.1 8.7 0.00 0.00 0.00 73 1007.6
20260506223240 56 247 3.5 4.3 0.00 0.00 0.00 74 1007.5
20260506222239 57 232 2.6 2.6 0.00 0.00 0.00 74 1007.4
20260506221239 57 253 2.6 3.5 0.00 0.00 0.00 75 1007.2
20260506220238 57 243 1.7 2.6 0.00 0.00 0.00 74 1006.4
20260506215237 57 244 0.9 1.7 0.00 0.00 0.00 73 1006.7
20260506214237 57 223 1.7 2.6 0.00 0.00 0.00 72 1006.2
20260506213236 58 232 0.0 0.0 0.00 0.00 0.00 71 1005.9
20260506212235 58 248 2.6 3.5 0.00 0.00 0.00 71 1006.0
20260506211234 59 229 0.9 1.7 0.00 0.00 0.00 70 1005.8
20260506210231 59 253 4.3 5.2 0.00 0.00 0.00 70 1005.7
20260506205230 59 241 5.2 5.2 0.00 0.00 0.00 69 1005.7
20260506204229 59 251 2.6 3.5 0.00 0.00 0.00 68 1005.8
20260506203228 60 270 7.8 10.4 0.00 0.00 0.00 68 1005.5
20260506202228 60 259 6.1 8.7 0.00 0.00 0.00 68 1005.4
20260506201227 60 246 7.0 12.2 0.00 0.00 0.00 67 1005.4
20260506200226 61 250 8.7 11.3 0.00 0.00 0.00 64 1005.6
20260506195226 62 265 5.2 9.6 0.00 0.00 0.00 56 1005.2
20260506194225 62 224 1.7 1.7 0.00 0.00 0.00 52 1004.5
20260506193224 64 190 1.7 2.6 0.00 0.00 0.00 50 1004.1
20260506192223 64 207 0.9 0.9 0.00 0.00 0.00 49 1004.1
20260506191223 63 207 0.0 0.9 0.00 0.00 0.00 49 1004.0
20260506190222 64 225 0.0 0.0 0.00 0.00 0.00 51 1003.7
20260506185221 68 231 0.0 0.0 0.00 0.00 0.00 44 1003.4
20260506184221 69 173 1.7 2.6 0.00 0.00 0.00 40 1003.3
20260506183220 69 182 1.7 3.5 0.00 0.00 0.00 40 1002.8
20260506182219 68 214 0.9 1.7 0.00 0.00 0.00 41 1002.6
20260506181215 69 160 0.9 1.7 0.00 0.00 0.00 41 1002.5
20260506180215 69 193 1.7 2.6 0.00 0.00 0.00 41 1003.0
20260506175214 70 194 0.9 1.7 0.00 0.00 0.00 42 1002.7
20260506174213 71 192 1.7 2.6 0.00 0.00 0.00 41 1002.6
20260506173212 71 182 2.6 3.5 0.00 0.00 0.00 40 1002.6
20260506172212 72 188 1.7 2.6 0.00 0.00 0.00 40 1002.5
20260506171211 74 139 3.5 5.2 0.00 0.00 0.00 36 1002.5
20260506170210 75 191 2.6 3.5 0.00 0.00 0.00 37 1002.7
20260506165210 75 156 0.9 3.5 0.00 0.00 0.00 37 1002.5